Погода в Рославле

Погода в Рославле : погода сейчас, прогноз погоды и архив. Всё, что Вы хотите узнать о погоде в Рославле!

Хотите узнать прогноз погоды в Рославле? Тогда Вам сюда: Погода в Рославле

Поиск расширенной информации на нашем сайте:

Другие новости

Новости СМИ2

Главная страница сайта

Новости сайта

02.10.2013

Напоминаем, что на нашем новом сайте вы можете получить высокодетализированные прогнозы погоды по пунктам России, СНГ и мира (включающие важные для авиации метеовеличины, такие как направление и скорость ветра, видимость, явления погоды, количество и форма облачности, нижняя и верхняя граница облачности), а также ознакомиться с разнообразными материалами по авиационной метеорологии и подборкой полезных ссылок на эту тему.

Сайт Метеоцентр.Азия посвящён разработке технологий оптимизации авиаметеорологического обслуживания, включая проектирование и перспективное создание нескольких автоматизированных авиаметеорологических систем:
- система выпуска высокодетальных прогностических карт явлений погоды для нижнего воздушного пространства по России и ближнему зарубежью;
- система верификации прогнозов TAF (выпускаемых синоптиками официальных АМСГ РФ и ближнего зарубежья) и AUTOTAF (выпускаемых сайтом Метеоцентр.Азия) - выявление ошибок, онлайн-сопоставление с фактической погодой METAR, автоматическое внесение коррективов в прогнозы при резком отклонении фактической погоды от прогноза, подсчёт оправдываемости прогнозов по элементам и в целом;
- система обработки, анализа и отображения авиаметеорологической информации для применения провайдерами метеорологической информации.

Рекомендуем: аренда дома одесса

Погода в Рославле - сегодня

Время (UTC), дата Ветер
(°,м/с) 
Видим.   Явления Облачность Т
(°С)
Тd
(°С)
f(%) Тe
(°С)
Pmin
(гПа)
dP
(гПа)
Po
(мм)
O2
(г/м3)
Тmin Tmax R s Состояние
почвы
06 24.04.17 320 (СЗ) 20000 м    3/0 средняя 
[Ac trans]
+4.2 -1.5 66 +3  1010.8  0.6  738  293  -2.4        влажная 
09 24.04.17 270 (З) 20000 м    5/5 1000 м 
[Cu med, cong]
+7.4 -4 44 +6  1010.6  738  290           
12 24.04.17 310 (СЗ) 4{12}  20000 м    6/4 1000 м средняя 
[Cu med, cong|Ac trans]
+8 -5.7 37 +7  1010.3  -0.2  737  289           
15 24.04.17 340 (С) 3{12}  20000 м    6/4 1000 м средняя 
[Cu med, cong|Ac trans]
+9.2 -9.1 26 +9  1010.1  737  288           
18 24.04.17 270 (З) 20000 м    4/0 средняя, верхняя 
[Ac trans|Ci fib]
+4.3 -6.1 47 +3  1012.7  739  294    +9.7       
21 24.04.17 220 (ЮЗ) 50000 м    ясно 
+1 -5.5 62 -1  1013.5  0.5  739  297           
00 25.04.17 220 (ЮЗ) 50000 м    ясно 
-0.3 -4 76 -1  1014.4  0.7  740  299           
03 25.04.17 230 (ЮЗ) 20000 м    3/0 верхняя 
[Ci fib]
-1.4 -3.1 88 -3  1015.4  0.9  740  300  -1.4         
06 25.04.17 230 (ЮЗ) 20000 м    3/0 верхняя 
[Ci fib]
+5.2 -0.4 67 +4  1016.2  1.4  742  293  -1.4        влажная 
09 25.04.17 210 (ЮЗ) 5{10}  20000 м    9/9 900 м 
[Cu med, cong]
+8.4 -2.9 45 +7  1016.2  0.4  742  290           
12 25.04.17 200 (Ю) 7-11{12}  20000 м    9/5 1000 м средняя 
[Cu med, cong|Ac cuf]
+9.8 -4.2 37 +8  1015.5  -0.6  741  289           
15 25.04.17 180 (Ю) 6{11}  20000 м    9/3 1000 м средняя, верхняя 
[Cu med, cong|Ac trans|Cs]
+9.8 -2.7 41 +8  1014.6  -0.8  741  288           
18 25.04.17 140 (ЮВ) 3{10}  50000 м    9/0 средняя, верхняя 
[Ac trans|Cs]
+7.5 -1.6 52 +7  1014.2  -0.6  740  290    +10.3       
21 25.04.17 170 (Ю) 5{11}  50000 м    9/0 верхняя 
[Cs]
+8.8 -1.6 48 +7  1012.3  -1.7  739  289           
00 26.04.17 180 (Ю) 5{10}  50000 м    5/3 1000 м верхняя 
[Cu hum|Cs]
+8.1 -1.5 51 +7  1011.1  -1.2  738  289           
03 26.04.17 190 (Ю) 5{11}  20000 м    10/3 1000 м средняя 
[Cu hum|Ac As]
+8 -0.3 56 +6  1010.4  -0.7  737  289  +7.2         
06 26.04.17 200 (Ю) 8-11{12}  20000 м    6/1 1000 м средняя, верхняя 
[Cu hum|Ac trans|Ci fib]
+11.4 +2.2 53 +10  1010.3  0.3  738  285  +7.2        влажная 
09 26.04.17 200 (Ю) 7-13{14}  20000 м    9/1 1000 м средняя, верхняя 
[Cu med, cong|Ac trans|Cc]
+15.2 +4.8 50 +14  1009.3  -0.6  737  281           
12 26.04.17 220 (ЮЗ) 7-14{17}  20000 м    9/4 600 м средняя 
[Cu hum|Ac trans]
+16.7 +4.1 43 +16  1008.9  -0.3  737  279           
15 26.04.17 360 (С) 3{14}  20000 м  в посл. час ливневой дождь  9/6 600 м средняя 
[Cu med, cong|Ac cuf]
+6.7 +5.5 92 +6  1012.7  2.8  739  290      0.5     
18 26.04.17 070 (В) 14000 м  слаб. дождь{ливн. осадки}  10/5 300 м средняя 
[Frnb|Ac As]
+5.1 +4.3 95 +5  1013.7  0.8  740  292    +18.1     
21 26.04.17 030 (СВ) 9000 м  слаб. дождь  10/4 300 м средняя 
[Frnb|Ac As]
+5.2 +4.7 97 +6  1013.7  740  292           
00 27.04.17 010 (С) 12000 м  слаб. дождь  10/4 300 м средняя 
[Frnb|Ac As]
+3.9 +3.2 95 +3  1014.7  0.8  740  294           
03 27.04.17 040 (СВ) 9000 м  слаб. дождь  10/0 средняя 
[Ac As]
+3.8 +3.2 96 +3  1014.5  -0.2  740  294  +3.8    10     
06 27.04.17 050 (СВ) 15000 м  в посл. час дождь  9/9 300 м 
[Sc]
+5.2 +4.7 97 +5  1014.5  0.1  740  292  +3.8      влажная 
Время (UTC), дата Ветер
(°,м/с) 
Видим.   Явления Облачность Т
(°С)
Тd
(°С)
f(%) Тe
(°С)
Pmin
(гПа)
dP
(гПа)
Po
(мм)
O2
(г/м3)
Тmin Tmax R s Состояние
почвы

Для получения пояснительной информации подведите курсор к названию столбца.

ПОГОДА в Рославле - архив

Всё, что Вы хотите узнать о погоде в Рославле - удобно и подробно!

Выберите нужную дату (начиная с 1 января 2015* года) и нажмите кнопку "Найти".
Будут отображены архивные сводки погоды по пункту Рославль, начиная с указанной даты.


Отображать данные в формате CSV (для использования в таблицах Excel)


Внимание! Наш архив погоды предназначен исключительно для личного некоммерческого использования в познавательных целях. Если Вам необходимы официальные справки о состоянии погоды (для производственных, юридических, коммерческих и т.п. целей), обращайтесь в органы Росгидромета.

*Примечание: данная дата относится к архиву по метеостанциям СССР (Россия, СНГ, Балтия).
Архив по метеостанциям Зарубежной Европы и Азии (кроме Китая) хранится 10 дней, по другим регионам земного шара (Китай, Африка, Америка, Австралия, Океания) - 1 день.

Рославль - район местоположения метеостанции


Название, широта, долгота, высота метеостанции:
Рославль 53.9°ш. 32.8°д. 224 м над ур. моря [Российская Федерация]

Дополнительная информация

В oтличие oт бoльшинства пoгoдных сайтoв мы публикуем пoдрoбную метеoинфoрмацию в детальнoм прoфессиoнальнoм фoрмате.

Характеристики температуры и влажнoсти вoздуха измеряются на высoте 2 м в тени вдали oт зданий и деревьев.
Скoрoсть ветра измеряется на высoте 10 м (на урoвне рoста челoвека скoрoсть ветра ниже в 1.5-2 раза). Если метеoстанция нахoдится в гoрoде или в лесу, тo скoрoсть ветра занижена на 2-4 м/с пo сравнению с oткрытым местoм. Скoрoсть ветра над акватoриями крупных рек и oзёр, а также на вершинах хoлмoв на 2-5 м/с выше, чем в oбычных услoвиях.
Атмoсфернoе давление в разных тoчках местнoсти мoжет значительнo oтличаться oт давления на метеoстанции, в зависимoсти oт услoвий рельефа (при пoдъёме на 10 м давление пoнижается примернo на 1 мм рт.ст.).